KE8WMS Weather Reports


Display with metric or nautical units.
time (UTC)temp
F
wind
direction
speed
MPH
gust
MPH
rain 1hr
in
rain 24hr
in
rain mn
in
humidity
%
barometer
mb
20260510153001 54 193 3.0 3.0 0.00 0.01 0.01 55 1014.7
20260510152458 54 299 2.0 2.0 0.00 0.01 0.01 55 1014.5
20260510151954 55 189 3.0 3.0 0.00 0.01 0.01 52 1014.4
20260510151452 54 221 0.0 1.0 0.00 0.01 0.01 54 1014.3
20260510150948 54 45 3.0 5.0 0.00 0.01 0.01 56 1014.3
20260510150444 53 260 1.0 1.0 0.00 0.01 0.01 57 1014.3
20260510145940 53 281 0.0 1.0 0.00 0.01 0.01 57 1014.1
20260510145436 53 322 2.0 3.0 0.00 0.01 0.01 55 1014.6
20260510144933 52 275 2.0 2.0 0.00 0.01 0.01 58 1014.3
20260510144430 51 172 1.0 1.0 0.00 0.01 0.01 59 1014.1
20260510143925 52 307 3.0 3.0 0.00 0.01 0.01 58 1014.0
20260510143421 52 352 6.0 7.0 0.00 0.01 0.01 58 1014.0
20260510142918 51 351 1.0 2.0 0.00 0.01 0.01 57 1014.1
20260510142415 52 308 1.0 2.0 0.00 0.01 0.01 60 1014.1
20260510141911 52 159 1.0 1.0 0.00 0.01 0.01 58 1013.9
20260510141409 51 217 1.0 2.0 0.00 0.01 0.01 60 1013.9
20260510140905 51 164 1.0 1.0 0.00 0.01 0.01 61 1014.0
20260510140402 50 247 1.0 2.0 0.00 0.01 0.01 60 1014.0
20260510135901 51 32 3.0 3.0 0.00 0.01 0.01 62 1014.2
20260510135357 50 215 0.0 0.0 0.00 0.01 0.01 62 1014.0
20260510134855 50 301 5.0 6.0 0.00 0.01 0.01 62 1013.8
20260510134351 50 11 5.0 8.0 0.00 0.01 0.01 64 1013.9
20260510133847 50 14 2.0 2.0 0.00 0.01 0.01 65 1014.1
20260510133343 49 45 2.0 2.0 0.00 0.01 0.01 66 1013.9
20260510132839 49 30 1.0 2.0 0.00 0.01 0.01 67 1013.6
20260510132338 49 237 1.0 1.0 0.00 0.01 0.01 68 1013.5
20260510131834 49 224 0.0 1.0 0.00 0.01 0.01 69 1013.7
20260510131332 49 258 2.0 3.0 0.00 0.01 0.01 71 1013.2
20260510130828 49 15 7.0 9.0 0.00 0.01 0.01 69 1013.2
20260510130325 48 44 5.0 7.0 0.00 0.01 0.01 69 1012.9
20260510125821 48 15 4.0 6.0 0.00 0.01 0.01 71 1012.9
20260510125318 49 305 3.0 5.0 0.00 0.01 0.01 70 1013.4
20260510124815 49 353 3.0 5.0 0.00 0.01 0.01 72 1013.0
20260510124312 49 9 2.0 2.0 0.00 0.01 0.01 72 1012.9
20260510123807 48 2 4.0 5.0 0.00 0.01 0.01 71 1012.6
20260510123303 49 313 3.0 3.0 0.00 0.01 0.01 72 1013.0
20260510122759 49 289 3.0 3.0 0.00 0.01 0.01 70 1012.6
20260510122256 49 19 3.0 5.0 0.00 0.01 0.01 71 1012.5
20260510121752 49 254 1.0 1.0 0.00 0.01 0.01 72 1012.8
20260510121250 49 267 2.0 3.0 0.00 0.01 0.01 73 1012.6
20260510120747 48 292 0.0 1.0 0.00 0.01 0.01 73 1012.4
20260510120243 48 291 3.0 6.0 0.00 0.01 0.01 72 1012.3
20260510115739 48 44 3.0 5.0 0.00 0.01 0.01 72 1012.3
20260510115238 48 235 1.0 1.0 0.00 0.01 0.01 73 1012.2
20260510114732 48 238 3.0 5.0 0.00 0.01 0.01 72 1011.6
20260510114230 48 38 5.0 6.0 0.00 0.01 0.01 71 1011.7
20260510113725 48 27 4.0 6.0 0.00 0.01 0.01 73 1011.5
20260510113222 48 344 6.0 7.0 0.00 0.01 0.01 71 1011.6
20260510112718 48 213 3.0 3.0 0.00 0.01 0.01 72 1011.5
20260510112216 48 341 1.0 2.0 0.00 0.01 0.01 73 1011.3
20260510111711 48 344 2.0 3.0 0.00 0.01 0.01 78 1011.2
20260510111209 48 273 2.0 2.0 0.00 0.01 0.01 79 1010.9
20260510110709 48 337 3.0 5.0 0.00 0.01 0.01 78 1010.9
20260510110207 48 357 3.0 5.0 0.00 0.01 0.01 78 1011.0
20260510105706 48 244 1.0 1.0 0.00 0.01 0.01 79 1010.8
20260510105201 48 332 4.0 5.0 0.00 0.01 0.01 79 1010.7
20260510104658 48 320 4.0 6.0 0.00 0.01 0.01 81 1010.1
20260510104155 48 312 2.0 2.0 0.00 0.01 0.01 81 1010.4
20260510103652 48 249 1.0 2.0 0.00 0.01 0.01 82 1010.2
20260510103148 48 300 1.0 2.0 0.00 0.01 0.01 82 1009.9
20260510102648 48 241 1.0 1.0 0.00 0.01 0.01 82 1009.8
20260510102145 48 279 3.0 5.0 0.00 0.01 0.01 82 1010.0
20260510101642 48 238 2.0 2.0 0.00 0.01 0.01 83 1009.7
20260510101140 48 352 3.0 3.0 0.00 0.01 0.01 84 1009.6
20260510100636 48 262 2.0 2.0 0.00 0.01 0.01 84 1009.6
20260510100134 48 235 1.0 1.0 0.00 0.01 0.01 84 1009.6
20260510095629 48 285 2.0 3.0 0.00 0.01 0.01 84 1009.7
20260510095124 48 212 1.0 2.0 0.00 0.01 0.01 85 1009.6
20260510094623 48 270 1.0 1.0 0.00 0.01 0.01 85 1009.3
20260510094119 48 252 1.0 1.0 0.00 0.01 0.01 85 1009.6
20260510093616 48 277 1.0 1.0 0.00 0.01 0.01 85 1009.4
20260510093113 48 229 0.0 1.0 0.00 0.01 0.01 85 1009.3
20260510092609 48 325 3.0 3.0 0.00 0.01 0.01 85 1009.0
20260510092109 48 270 1.0 2.0 0.00 0.01 0.01 84 1008.9
20260510091606 48 236 4.0 6.0 0.00 0.01 0.01 85 1008.8
20260510091102 49 319 3.0 3.0 0.00 0.01 0.01 84 1008.7
20260510090559 49 316 3.0 3.0 0.00 0.01 0.01 83 1008.8
20260510090055 49 328 3.0 5.0 0.00 0.01 0.01 82 1008.6
20260510085550 49 286 1.0 2.0 0.00 0.01 0.01 82 1008.5
20260510085046 49 233 1.0 1.0 0.00 0.01 0.01 83 1008.6
20260510084543 49 272 2.0 2.0 0.00 0.01 0.01 86 1008.6
20260510084039 48 85 2.0 2.0 0.00 0.01 0.01 89 1008.4
20260510083536 48 218 0.0 0.0 0.00 0.01 0.01 92 1008.0
20260510083032 48 235 0.0 1.0 0.00 0.01 0.01 93 1008.1
20260510082529 47 239 0.0 0.0 0.00 0.01 0.01 94 1008.0
20260510082025 47 221 0.0 0.0 0.00 0.01 0.01 94 1008.0
20260510081520 47 221 0.0 0.0 0.00 0.01 0.01 94 1008.0
20260510081016 46 220 0.0 0.0 0.00 0.01 0.01 94 1007.8
20260510080515 47 228 0.0 0.0 0.00 0.01 0.01 93 1007.5
20260510080012 47 228 0.0 0.0 0.00 0.01 0.01 93 1007.5
20260510075509 47 227 0.0 0.0 0.00 0.01 0.01 93 1007.4
20260510075006 47 227 0.0 0.0 0.00 0.01 0.01 93 1007.2
20260510074504 47 241 0.0 0.0 0.00 0.01 0.01 93 1006.9
20260510073959 47 216 0.0 0.0 0.00 0.01 0.01 93 1007.0
20260510073455 47 215 0.0 0.0 0.00 0.01 0.01 93 1006.9
20260510072952 47 226 0.0 0.0 0.00 0.01 0.01 92 1006.8
20260510072449 47 226 0.0 0.0 0.00 0.01 0.01 92 1007.0
20260510071944 48 220 0.0 0.0 0.00 0.01 0.01 92 1006.7
20260510071441 48 225 0.0 0.0 0.00 0.01 0.01 91 1006.8
20260510070939 48 228 0.0 0.0 0.00 0.01 0.01 90 1006.9
20260510070436 48 224 0.0 1.0 0.00 0.01 0.01 89 1006.8
20260510065931 49 225 0.0 0.0 0.00 0.01 0.01 89 1006.6
20260510065428 49 222 0.0 0.0 0.00 0.01 0.01 87 1006.6
20260510064924 49 223 0.0 0.0 0.00 0.01 0.01 87 1006.7
20260510064422 50 252 1.0 1.0 0.00 0.01 0.01 87 1006.6
20260510063919 50 224 0.0 0.0 0.00 0.01 0.01 86 1006.3
20260510063415 50 223 0.0 0.0 0.00 0.01 0.01 85 1006.5
20260510062913 50 218 0.0 0.0 0.00 0.01 0.01 84 1006.5
20260510062408 51 219 0.0 1.0 0.00 0.01 0.01 83 1006.5
20260510061904 51 218 1.0 1.0 0.00 0.01 0.01 82 1006.3
20260510061400 51 17 3.0 3.0 0.00 0.01 0.01 83 1006.2
20260510060856 51 232 2.0 2.0 0.00 0.01 0.01 82 1006.4
20260510060353 52 15 1.0 2.0 0.00 0.01 0.01 83 1006.4
20260510055849 52 212 1.0 2.0 0.00 0.01 0.01 84 1006.1
20260510055349 52 274 1.0 1.0 0.00 0.01 0.01 85 1006.2
20260510054848 52 322 6.0 8.0 0.00 0.01 0.01 85 1006.2
20260510054344 52 245 4.0 6.0 0.00 0.01 0.01 88 1006.1
20260510053839 52 273 2.0 2.0 0.00 0.01 0.01 91 1006.0
20260510053335 53 222 2.0 2.0 0.00 0.01 0.01 92 1006.0
20260510052831 53 87 3.0 3.0 0.00 0.01 0.01 92 1005.7
20260510052327 55 1 7.0 9.0 0.00 0.01 0.01 93 1005.5
20260510051824 55 55 1.0 2.0 0.00 0.01 0.01 92 1005.3
20260510051321 56 250 2.0 2.0 0.00 0.01 0.01 91 1005.0
20260510050817 57 224 0.0 0.0 0.00 0.01 0.01 88 1004.8
20260510050314 57 221 1.0 1.0 0.07 0.01 0.01 88 1004.6
20260510045811 58 270 1.0 2.0 0.07 0.01 0.01 87 1004.4
20260510045308 57 58 2.0 2.0 0.00 0.00 0.00 88 1004.9
20260510044805 57 343 2.0 2.0 0.00 0.00 0.00 88 1004.3
20260510044302 57 212 2.0 2.0 0.00 0.00 0.00 89 1004.6
20260510043758 57 227 0.0 0.0 0.00 0.00 0.00 88 1004.4
20260510043254 57 269 2.0 2.0 0.00 0.00 0.00 88 1003.8
20260510042752 56 213 0.0 0.0 0.00 0.00 0.00 88 1003.0
20260510042247 56 207 1.0 1.0 0.00 0.00 0.00 88 1003.3
20260510041744 57 212 1.0 1.0 0.00 0.00 0.00 87 1002.9
20260510041242 57 209 1.0 1.0 0.00 0.00 0.00 86 1003.1
20260510040739 57 213 0.0 1.0 0.00 0.00 0.00 87 1003.0
20260510040236 57 214 0.0 0.0 0.00 0.00 0.00 88 1002.9
20260510035731 57 216 0.0 1.0 0.00 0.29 0.29 87 1002.8
20260510035227 57 213 0.0 1.0 0.00 0.29 0.29 87 1002.8
20260510034723 57 227 1.0 2.0 0.00 0.29 0.29 87 1003.0
20260510034221 57 200 2.0 2.0 0.00 0.29 0.29 87 1002.9
20260510033717 58 201 1.0 1.0 0.00 0.29 0.29 87 1003.1
20260510033215 58 190 1.0 2.0 0.00 0.29 0.29 87 1003.1
20260510032711 58 203 2.0 2.0 0.00 0.29 0.29 87 1003.1
20260510032207 57 216 3.0 3.0 0.00 0.29 0.29 86 1002.9
20260510031701 57 221 2.0 2.0 0.00 0.29 0.29 87 1002.9
20260510031159 57 198 1.0 2.0 0.00 0.29 0.29 88 1002.8
20260510030658 56 224 1.0 1.0 0.00 0.29 0.29 89 1002.7
20260510030156 55 225 2.0 2.0 0.00 0.29 0.29 93 1003.3
20260510025653 55 204 1.0 2.0 0.00 0.29 0.29 94 1002.9
20260510025150 55 209 2.0 2.0 0.00 0.29 0.29 95 1003.0
20260510024647 55 208 1.0 1.0 0.00 0.29 0.29 94 1002.7
20260510024143 55 209 1.0 2.0 0.00 0.29 0.29 94 1002.8
20260510023639 56 207 2.0 2.0 0.00 0.29 0.29 93 1002.9
20260510023137 56 193 1.0 2.0 0.00 0.29 0.29 94 1002.8
20260510022637 55 207 1.0 2.0 0.00 0.29 0.29 94 1002.9
20260510022132 55 198 1.0 2.0 0.00 0.29 0.29 96 1003.1
20260510021628 55 197 2.0 2.0 0.00 0.29 0.29 97 1003.0
20260510021126 55 230 3.0 5.0 0.00 0.29 0.29 98 1003.3
20260510020626 54 209 1.0 2.0 0.00 0.29 0.29 98 1002.8
20260510020121 54 205 1.0 2.0 0.00 0.29 0.29 97 1002.7
20260510015618 54 208 1.0 1.0 0.00 0.29 0.29 97 1002.3
20260510015114 55 214 0.0 0.0 0.00 0.29 0.29 97 1002.5
20260510014610 55 211 1.0 1.0 0.00 0.29 0.29 97 1002.1
20260510014108 55 213 0.0 1.0 0.00 0.29 0.29 96 1002.3
20260510013602 55 202 1.0 1.0 0.00 0.29 0.29 96 1002.2
20260510013058 55 214 1.0 1.0 0.00 0.29 0.29 96 1002.4
20260510012557 55 209 1.0 1.0 0.00 0.29 0.29 96 1002.2
20260510012054 55 214 0.0 0.0 0.00 0.29 0.29 95 1002.3
20260510011553 55 211 1.0 1.0 0.00 0.29 0.29 95 1002.0
20260510011049 55 211 1.0 1.0 0.00 0.29 0.29 94 1002.3
20260510010546 55 203 1.0 1.0 0.00 0.29 0.29 95 1002.0
20260510010043 55 212 1.0 1.0 0.00 0.29 0.29 95 1002.1
20260510005539 56 216 0.0 1.0 0.00 0.29 0.29 94 1002.0
20260510005037 56 214 1.0 1.0 0.00 0.29 0.29 94 1002.0
20260510004534 56 227 1.0 1.0 0.00 0.29 0.29 94 1001.9
20260510004032 56 210 1.0 2.0 0.00 0.29 0.29 94 1002.1
20260510003529 56 213 0.0 1.0 0.00 0.29 0.29 94 1002.0
20260510003024 56 211 3.0 5.0 0.00 0.29 0.29 94 1002.1
20260510002520 56 227 2.0 2.0 0.00 0.29 0.29 95 1002.1
20260510002017 57 205 0.0 0.0 0.00 0.29 0.29 94 1002.1
20260510001514 57 199 2.0 2.0 0.00 0.29 0.29 94 1002.2
20260510001012 57 215 3.0 3.0 0.00 0.29 0.29 94 1002.0
20260510000512 57 211 1.0 1.0 0.00 0.29 0.29 95 1002.2
20260510000010 57 236 1.0 1.0 0.00 0.29 0.29 94 1002.0
20260509235507 57 211 1.0 2.0 0.00 0.29 0.29 94 1002.0
20260509235003 57 209 1.0 2.0 0.00 0.29 0.29 94 1002.0
20260509234459 57 250 3.0 3.0 0.00 0.29 0.29 95 1002.0
20260509233957 57 218 3.0 3.0 0.00 0.29 0.29 96 1001.8
20260509233454 57 204 3.0 3.0 0.00 0.29 0.29 96 1001.8
20260509232950 57 229 2.0 3.0 0.00 0.29 0.29 96 1001.8
20260509232448 57 233 2.0 3.0 0.00 0.29 0.29 96 1001.7
20260509231944 57 215 2.0 2.0 0.00 0.29 0.29 96 1001.7
20260509231441 57 227 0.0 0.0 0.00 0.29 0.29 96 1001.9
20260509230939 57 258 3.0 3.0 0.00 0.29 0.29 96 1001.6
20260509230435 57 224 3.0 3.0 0.00 0.29 0.29 96 1001.8
20260509225931 57 223 2.0 2.0 0.00 0.29 0.29 96 1002.0
20260509225428 56 225 2.0 2.0 0.00 0.29 0.29 96 1002.0
20260509224924 56 206 1.0 2.0 0.31 0.29 0.29 96 1001.8
20260509224419 56 134 1.0 2.0 0.59 0.29 0.29 95 1001.8
20260509223917 56 147 1.0 1.0 1.21 0.23 0.23 94 1002.5
20260509223414 57 339 3.0 3.0 1.16 0.19 0.19 92 1002.2
20260509222911 67 331 5.0 7.0 0.00 0.00 0.00 70 1001.8
20260509222406 69 344 4.0 6.0 0.00 0.00 0.00 66 1001.4
20260509221901 69 287 4.0 5.0 0.00 0.00 0.00 55 999.9
20260509221359 69 221 7.0 11.0 0.00 0.00 0.00 55 999.3
20260509220855 69 220 9.0 13.0 0.00 0.00 0.00 53 999.5
20260509220351 70 287 3.0 6.0 0.00 0.00 0.00 53 999.9
20260509215846 70 159 9.0 16.0 0.00 0.00 0.00 55 999.8
20260509215343 70 212 7.0 9.0 0.00 0.00 0.00 53 999.7
20260509214840 70 209 1.0 1.0 0.00 0.00 0.00 53 999.9
20260509214338 71 223 9.0 14.0 0.00 0.00 0.00 53 1000.0
20260509213835 71 223 8.0 11.0 0.00 0.00 0.00 51 999.9
20260509213330 72 219 6.0 8.0 0.00 0.00 0.00 51 999.7
20260509212828 72 222 4.0 8.0 0.00 0.00 0.00 52 999.8
20260509212326 72 189 5.0 8.0 0.00 0.00 0.00 51 999.5
20260509211821 72 199 6.0 7.0 0.00 0.00 0.00 53 999.9
20260509211317 72 193 5.0 6.0 0.00 0.00 0.00 53 999.6
20260509210814 72 202 5.0 7.0 0.00 0.00 0.00 54 1000.0
20260509210312 72 216 5.0 7.0 0.00 0.00 0.00 54 999.7
20260509205811 72 239 5.0 8.0 0.00 0.00 0.00 55 999.7
20260509205307 72 226 4.0 6.0 0.00 0.00 0.00 55 999.8
20260509204802 72 232 5.0 9.0 0.00 0.00 0.00 56 999.9
20260509204258 71 222 7.0 9.0 0.00 0.00 0.00 55 1000.1
20260509203754 71 207 5.0 8.0 0.00 0.00 0.00 54 1000.3
20260509203252 71 213 4.0 5.0 0.00 0.00 0.00 54 1000.4
20260509202748 72 228 12.0 16.0 0.00 0.00 0.00 53 1000.6
20260509202245 72 218 6.0 8.0 0.00 0.00 0.00 55 1000.5
20260509201744 71 235 6.0 9.0 0.00 0.00 0.00 56 1000.5
20260509201241 71 235 8.0 10.0 0.00 0.00 0.00 54 1000.9
20260509200738 71 200 5.0 7.0 0.00 0.00 0.00 57 1000.9
20260509200238 71 246 5.0 7.0 0.00 0.00 0.00 56 1000.9
20260509195734 71 181 3.0 5.0 0.00 0.00 0.00 59 1001.0
20260509195229 71 201 5.0 5.0 0.00 0.00 0.00 56 1000.9
20260509194724 71 133 4.0 6.0 0.00 0.00 0.00 55 1001.0
20260509194221 71 218 2.0 3.0 0.00 0.00 0.00 58 1001.0
20260509193718 71 200 3.0 5.0 0.00 0.00 0.00 59 1001.2
20260509193217 71 209 5.0 8.0 0.00 0.00 0.00 57 1001.3
20260509192714 71 199 3.0 3.0 0.00 0.00 0.00 60 1001.3
20260509192209 69 119 8.0 13.0 0.00 0.00 0.00 59 1001.2
20260509191705 71 212 10.0 17.0 0.00 0.00 0.00 58 1001.4
20260509191201 71 203 3.0 8.0 0.00 0.00 0.00 59 1001.4
20260509190658 70 185 5.0 7.0 0.00 0.00 0.00 60 1001.3
20260509190155 70 238 3.0 5.0 0.00 0.00 0.00 62 1001.6
20260509185653 71 215 4.0 6.0 0.00 0.00 0.00 60 1001.7
20260509185148 71 353 5.0 8.0 0.00 0.00 0.00 60 1001.5
20260509184646 71 235 5.0 6.0 0.00 0.00 0.00 59 1001.8
20260509184143 69 233 4.0 6.0 0.00 0.00 0.00 59 1001.9
20260509183640 68 169 3.0 5.0 0.00 0.00 0.00 63 1002.1
20260509183140 68 214 2.0 3.0 0.00 0.00 0.00 64 1002.0
20260509182636 69 226 6.0 7.0 0.00 0.00 0.00 62 1001.9
20260509182134 69 285 3.0 3.0 0.00 0.00 0.00 61 1001.9
20260509181632 69 229 4.0 6.0 0.00 0.00 0.00 62 1002.1
20260509181129 69 168 5.0 7.0 0.00 0.00 0.00 61 1002.1
20260509180625 69 218 5.0 6.0 0.00 0.00 0.00 60 1002.1
20260509180122 68 198 5.0 6.0 0.00 0.00 0.00 63 1002.2
20260509175617 69 202 4.0 6.0 0.00 0.00 0.00 63 1002.1
20260509175115 69 214 8.0 9.0 0.00 0.00 0.00 60 1001.8
20260509174611 68 260 3.0 3.0 0.00 0.00 0.00 62 1002.1
20260509174106 67 220 4.0 6.0 0.00 0.00 0.00 62 1002.1
20260509173601 68 207 6.0 8.0 0.00 0.00 0.00 62 1002.1
20260509173057 68 222 4.0 6.0 0.00 0.00 0.00 64 1002.4
20260509172555 68 212 5.0 7.0 0.00 0.00 0.00 63 1002.6
20260509172050 68 225 3.0 5.0 0.00 0.00 0.00 65 1002.4
20260509171546 67 184 3.0 5.0 0.00 0.00 0.00 66 1002.4
20260509171043 68 101 4.0 7.0 0.00 0.00 0.00 66 1002.1
20260509170539 68 238 5.0 8.0 0.00 0.00 0.00 63 1002.3
20260509170035 67 225 6.0 10.0 0.00 0.00 0.00 64 1002.1
20260509165534 67 215 2.0 2.0 0.00 0.00 0.00 67 1002.3
20260509165029 67 168 3.0 6.0 0.00 0.00 0.00 68 1002.3
20260509164526 66 135 4.0 6.0 0.00 0.00 0.00 72 1002.4
20260509164021 66 141 6.0 7.0 0.00 0.00 0.00 69 1002.8
20260509163519 67 190 4.0 7.0 0.00 0.00 0.00 67 1002.5
20260509163014 67 185 3.0 3.0 0.00 0.00 0.00 68 1002.6
20260509162512 66 220 2.0 2.0 0.00 0.00 0.00 70 1002.4
20260509162008 65 207 1.0 1.0 0.00 0.00 0.00 71 1002.5
20260509161504 65 207 3.0 3.0 0.00 0.00 0.00 71 1002.4
20260509160959 64 233 2.0 2.0 0.00 0.00 0.00 72 1002.5
20260509160455 64 234 4.0 7.0 0.00 0.00 0.00 70 1002.6
20260509155956 65 241 3.0 6.0 0.00 0.00 0.00 69 1002.8
20260509155452 64 196 4.0 5.0 0.00 0.00 0.00 71 1003.0
20260509154949 64 267 0.0 1.0 0.00 0.00 0.00 72 1003.3
20260509154445 63 218 3.0 6.0 0.00 0.00 0.00 75 1003.4
20260509153943 61 185 2.0 2.0 0.00 0.00 0.00 77 1003.5
20260509153440 62 243 3.0 5.0 0.00 0.00 0.00 76 1003.5